Wind_Speed
7 7 7 8 9 10 13 15 17 17 18 18 18 18 17 14 11 8 5 3 2 1 2 3 4 3 3 2 2 3 3 4 4 5 6 6 6 6 7 7 7 7 6 7 7 6 6 5 5
7 7 6 6 8 10 13 15 16 17 17 17 18 17 16 14 12 9 6 4 3 1 2 3 4 4 4 3 3 3 3 3 3 4 4 5 6 6 6 6 7 7 6 6 6 6 6 5 5
6 6 6 7 8 9 12 14 15 16 16 17 17 16 16 15 13 10 7 5 3 1 1 3 4 4 5 4 4 3 2 2 2 3 3 4 5 5 6 6 6 6 6 7 6 6 5 5 4
5 5 5 6 7 8 9 12 14 15 16 17 17 16 16 15 13 11 8 6 4 2 1 2 3 4 5 5 5 3 3 2 1 1 2 3 4 5 5 5 6 6 6 7 7 6 5 5 4
4 5 5 6 6 6 7 9 13 14 15 16 17 17 16 16 14 12 9 6 4 2 1 2 3 3 5 6 5 5 4 3 2 1 0 1 3 4 5 5 6 6 6 7 6 6 5 4 4
4 5 5 5 5 4 5 8 10 13 14 15 15 16 16 16 14 12 10 7 5 4 2 2 3 4 5 5 6 6 5 5 4 3 2 1 2 3 4 5 5 6 6 6 6 6 5 4 3
5 6 5 6 6 5 6 7 9 10 12 13 14 15 15 15 15 13 11 9 7 5 4 4 5 5 6 6 7 7 7 6 5 4 3 2 2 3 4 4 5 5 5 5 6 5 4 4 3
6 7 7 7 8 8 8 7 7 8 9 11 13 14 15 15 15 14 12 11 9 7 6 6 6 6 6 7 7 8 8 7 6 5 4 3 2 2 3 4 4 5 5 5 5 4 4 3 3
8 8 8 8 9 9 10 10 9 8 8 10 12 13 14 15 15 14 13 12 10 9 8 7 7 6 6 7 8 9 8 8 7 6 5 4 3 2 3 3 4 4 4 4 4 4 4 3 3
9 10 10 10 10 11 11 11 10 9 8 8 10 13 14 15 15 14 14 13 11 10 9 8 8 7 7 8 9 9 10 9 8 8 7 5 4 3 3 3 3 3 4 4 4 3 3 3 3
9 10 11 11 12 12 12 12 11 10 9 9 10 12 13 14 15 15 15 14 13 11 11 9 9 8 8 9 9 10 11 11 11 10 8 7 5 4 3 3 3 3 3 3 3 3 3 3 3
10 11 12 12 13 13 13 12 12 10 9 9 10 12 13 14 15 15 15 15 15 14 11 10 10 10 9 10 10 10 12 12 12 12 10 8 6 5 4 3 2 2 3 3 2 2 3 3 2
11 12 12 12 13 13 13 12 11 9 9 9 10 11 11 13 15 15 17 17 17 15 12 11 12 10 10 10 11 12 13 13 13 13 11 9 8 6 5 3 3 2 2 2 1 2 2 2 2
11 12 12 12 13 13 13 12 11 9 10 9 10 10 11 13 15 15 16 17 17 16 13 11 10 9 10 11 11 11 12 14 13 13 13 11 9 7 5 4 4 2 1 1 0 1 1 2 2
12 12 12 13 13 13 13 11 10 10 10 9 9 10 11 13 15 15 16 17 17 15 12 11 10 9 9 11 11 11 12 12 13 13 13 11 10 8 7 5 5 3 2 1 0 0 1 1 2
13 13 14 14 14 15 13 10 10 10 10 9 9 10 12 13 14 15 16 17 17 13 12 12 8 7 8 10 11 10 11 12 13 13 12 11 10 9 8 7 6 5 3 2 1 0 1 2 2
14 14 14 14 15 15 14 12 12 11 10 9 11 11 13 14 13 14 15 16 16 14 12 10 6 5 7 9 10 11 12 13 14 13 13 12 11 10 9 8 7 6 4 3 2 0 0 1 2
15 15 15 15 16 15 14 13 13 12 11 11 11 12 13 13 13 14 15 16 15 14 11 9 6 5 6 8 10 11 12 13 14 14 14 13 12 10 10 9 8 7 5 4 2 1 1 0 1
16 16 16 16 17 17 16 15 15 14 13 12 12 12 13 13 14 15 15 15 14 13 10 8 6 5 6 7 10 11 13 14 14 15 15 14 13 12 11 10 9 8 7 5 4 3 2 1 1
16 16 16 17 19 19 18 17 15 15 14 13 12 12 13 14 15 15 15 16 14 12 10 7 5 5 6 8 10 12 13 14 15 15 15 15 14 13 12 11 11 10 8 6 5 4 3 2 2
17 17 17 18 20 21 20 17 16 15 15 13 12 12 13 14 14 14 15 14 12 11 9 7 5 5 7 8 10 11 13 15 15 14 16 16 15 14 14 13 11 10 9 8 6 5 4 3 3
18 18 19 20 21 22 21 18 15 16 14 13 12 12 12 13 14 14 14 13 12 10 9 7 4 5 7 9 11 12 13 15 15 16 16 16 15 15 14 14 12 11 10 9 8 7 6 5 4
20 22 21 21 22 21 21 19 16 15 14 13 12 12 12 12 12 13 13 12 11 9 8 6 4 5 7 10 11 13 14 16 16 16 16 16 16 15 15 14 13 12 11 10 9 9 7 7 6
22 23 22 22 22 21 19 19 16 15 14 13 12 12 12 12 12 12 12 11 10 9 8 6 5 4 7 9 12 13 14 16 16 16 16 16 16 16 15 15 14 13 12 12 11 10 9 9 8
22 22 23 22 22 20 18 18 15 13 12 12 12 11 12 11 10 11 10 9 9 8 7 6 4 3 5 8 10 13 15 16 15 16 17 17 17 16 16 16 15 14 13 12 11 11 11 10 10
23 23 22 22 21 19 18 16 14 13 12 11 11 10 10 10 10 10 9 9 8 7 7 5 5 4 4 6 10 13 14 16 15 16 17 18 17 17 17 18 17 16 15 14 13 12 12 12 12
25 24 22 22 21 19 18 16 15 14 12 12 10 9 10 10 10 10 9 9 8 7 6 6 5 4 4 5 8 11 14 15 15 16 17 18 18 19 18 19 18 17 16 15 15 14 14 14 14
25 24 23 22 21 19 18 16 15 13 13 13 12 10 10 10 10 10 9 8 7 7 6 6 5 4 3 4 5 8 12 13 14 15 16 17 18 19 19 20 20 19 18 17 16 16 16 16 16
25 24 24 23 21 20 18 15 14 13 13 12 11 10 10 10 10 9 8 7 7 6 6 6 5 4 4 4 5 7 10 12 13 14 15 16 18 19 19 20 20 20 20 19 19 18 18 18 18
25 24 23 22 21 19 18 15 14 13 14 13 11 10 9 10 11 10 8 7 7 7 7 7 6 5 5 5 6 7 9 11 12 13 15 16 17 19 20 21 21 22 22 21 20 20 20 20 20
Wind_Direction
48 45 45 48 42 44 45 48 48 44 43 40 35 31 28 28 27 30 36 34 43 96 189 194 195 194 190 172 151 127 103 88 76 62 46 35 28 26 26 25 26 26 24 22 22 22 23 24 29
35 36 37 34 31 38 41 45 46 44 42 39 33 29 26 26 24 27 33 37 36 36 198 197 199 200 197 188 177 151 121 99 84 67 49 35 26 22 23 22 23 23 19 16 15 16 18 20 23
28 26 21 17 26 35 40 45 45 43 40 37 32 27 22 21 22 24 28 35 32 31 208 200 203 203 203 198 190 179 159 128 105 80 55 37 26 19 18 16 19 17 14 11 11 12 13 14 18
18 9 4 6 16 29 37 41 40 41 38 33 28 24 20 18 18 16 17 23 20 4 245 215 211 210 211 207 202 197 187 173 147 102 56 33 18 11 13 11 9 6 6 6 6 6 6 10 15
0 354 351 355 4 17 31 31 36 39 35 31 25 19 15 13 12 13 11 7 2 349 293 231 224 223 220 219 220 218 212 204 197 185 98 13 7 6 6 2 359 356 359 360 360 3 7 15 15
341 341 338 348 350 347 7 16 24 33 31 27 22 16 11 8 9 10 9 0 349 339 307 261 245 238 234 229 227 228 226 220 214 217 223 284 334 344 349 354 354 354 355 355 357 1 6 10 10
323 328 327 328 325 327 338 357 15 26 24 20 15 10 8 5 2 2 1 354 341 326 308 288 273 257 243 234 232 232 230 226 225 226 227 247 301 332 346 347 347 350 352 351 353 359 6 9 9
310 311 313 316 318 320 327 332 350 11 14 16 10 5 4 1 358 355 352 348 340 326 304 288 280 268 249 235 230 231 230 226 227 227 228 239 273 311 333 336 340 345 348 349 351 356 360 3 6
304 301 305 309 312 317 322 324 332 345 358 7 4 0 360 357 353 350 346 343 336 327 308 290 280 265 248 236 231 228 226 226 228 227 226 231 251 283 310 322 331 342 347 348 350 353 353 354 358
301 298 302 303 306 311 313 317 326 331 344 351 356 355 354 351 346 343 339 336 331 326 320 297 285 267 253 241 233 229 226 225 225 223 220 224 237 258 284 306 318 332 342 346 344 348 354 354 354
300 297 302 305 305 305 309 315 322 326 333 341 346 347 347 346 340 337 335 333 328 323 315 305 289 276 259 246 236 232 228 226 223 220 218 218 226 238 259 290 309 325 333 337 339 344 351 354 360
297 298 301 302 302 300 303 310 316 323 326 334 338 341 342 341 337 335 332 330 325 320 311 307 293 279 260 242 235 235 227 221 219 219 218 215 221 227 240 265 291 306 318 322 323 337 354 6 15
294 297 300 298 296 297 298 305 312 316 315 324 336 339 337 336 334 330 329 329 327 324 312 296 290 276 255 236 229 229 223 219 216 216 217 215 218 223 229 246 261 284 306 315 319 348 15 26 27
293 293 293 291 291 293 295 300 302 303 307 319 335 339 341 338 334 328 326 326 326 321 313 298 282 268 249 233 221 219 220 221 221 220 218 215 217 219 219 233 241 251 267 300 2 4 24 24 16
286 286 286 286 285 287 291 292 293 293 302 311 325 330 335 339 336 331 325 327 324 317 309 300 286 268 246 226 216 212 213 220 218 213 213 214 214 215 213 221 226 225 227 226 200 59 45 29 32
281 281 281 282 282 284 287 285 285 292 301 307 320 325 328 331 332 332 330 328 329 318 312 297 282 268 244 222 215 217 209 210 208 204 206 207 205 205 209 216 214 209 206 205 195 72 36 30 51
276 276 277 276 279 281 287 286 285 289 298 306 315 318 322 326 330 332 331 328 328 323 312 292 276 253 229 214 216 213 207 208 206 202 200 200 202 204 208 206 206 203 202 205 211 253 316 28 64
272 273 274 274 276 279 282 286 288 291 292 299 307 312 319 324 330 332 332 330 332 327 314 296 288 250 221 219 216 213 209 208 205 202 199 199 202 204 207 206 204 201 202 206 216 232 238 222 107
273 274 272 270 271 273 277 281 285 287 287 292 303 311 322 325 330 333 333 331 330 326 317 310 293 254 226 217 216 211 208 206 202 200 199 201 202 203 205 205 201 201 204 209 214 226 224 211 175
272 272 268 265 268 272 275 279 280 281 287 295 300 309 316 322 326 330 332 330 327 327 320 312 304 263 219 212 211 211 209 204 202 203 200 200 202 202 203 203 201 203 207 210 214 222 214 209 206
269 267 261 259 265 271 274 277 276 278 283 292 299 307 313 319 322 323 326 327 326 325 322 313 289 248 230 217 211 210 208 202 201 200 201 202 202 203 205 203 203 207 210 213 217 220 218 220 214
264 259 256 259 263 267 275 275 275 278 282 289 294 301 306 309 314 320 325 324 325 324 321 321 298 245 225 214 205 203 200 196 196 199 202 203 203 205 206 205 207 210 214 218 221 223 226 225 218
256 256 259 262 264 267 273 277 279 281 282 285 288 293 300 303 310 317 320 319 323 324 322 316 298 244 222 215 204 203 201 200 199 201 203 205 205 208 209 210 213 216 219 222 224 226 232 230 226
253 257 261 263 266 266 273 277 282 282 283 286 288 289 294 299 304 309 313 316 322 325 326 319 305 253 227 220 212 207 206 204 203 202 205 206 207 209 212 214 217 221 224 226 227 229 232 233 232
252 255 259 262 265 268 270 274 278 277 279 284 286 285 290 295 296 300 307 312 318 321 324 323 304 266 233 222 214 212 210 208 205 204 207 209 211 213 214 216 220 223 225 225 228 231 235 236 235
249 251 255 260 264 265 267 268 270 269 274 283 286 285 289 290 292 296 299 304 313 318 319 312 296 279 244 220 211 211 210 208 207 208 212 214 216 219 221 221 225 229 229 229 231 234 237 239 238
244 248 253 256 259 261 262 265 262 263 267 275 282 285 288 289 291 295 296 300 308 316 318 317 307 285 253 223 216 216 213 212 213 215 217 219 222 225 227 227 229 231 232 232 234 237 239 243 243
239 242 245 251 255 259 259 260 262 262 266 271 275 279 281 287 290 290 291 294 299 310 314 316 317 313 277 238 223 216 213 212 216 218 222 227 229 229 231 229 230 233 236 238 238 239 242 244 245
237 239 243 248 252 256 259 260 261 259 262 271 274 276 280 282 288 287 285 286 291 298 307 307 301 296 284 266 250 236 223 218 219 223 226 230 231 231 233 233 233 236 239 241 243 244 246 248 250
234 237 242 247 252 257 261 261 259 259 262 267 273 277 278 281 288 284 282 282 287 290 299 302 291 280 274 271 260 245 232 224 224 229 232 234 234 235 237 236 237 239 241 243 246 246 247 251 253
Height
5885 5884 5885 5886 5886 5885 5883 5882 5881 5880 5879 5878 5877 5876 5876 5876 5876 5877 5875 5873 5873 5874 5874 5874 5875 5876 5877 5878 5879 5880 5881 5882 5883 5884 5885 5886 5886 5887 5887 5887 5887 5888 5888 5887 5887 5887 5887 5887 5887
5886 5886 5887 5887 5886 5885 5885 5884 5883 5882 5881 5879 5878 5878 5877 5877 5876 5875 5874 5874 5874 5874 5874 5874 5875 5876 5876 5878 5879 5880 5880 5881 5883 5884 5885 5886 5886 5887 5887 5887 5888 5888 5888 5888 5887 5887 5887 5887 5887
5887 5887 5888 5888 5887 5887 5886 5885 5884 5884 5882 5881 5880 5879 5879 5878 5877 5876 5875 5874 5874 5874 5874 5874 5875 5875 5876 5877 5878 5879 5880 5881 5882 5883 5884 5885 5886 5887 5887 5888 5888 5888 5888 5888 5887 5887 5887 5887 5887
5888 5889 5889 5889 5888 5887 5887 5886 5885 5885 5884 5882 5881 5880 5880 5879 5878 5877 5875 5875 5874 5874 5874 5874 5875 5875 5876 5877 5878 5879 5880 5881 5882 5883 5884 5885 5886 5886 5887 5888 5888 5888 5888 5888 5888 5888 5887 5887 5887
5889 5889 5889 5888 5888 5888 5887 5887 5886 5885 5885 5883 5882 5881 5880 5879 5878 5877 5876 5875 5875 5875 5874 5874 5874 5875 5875 5876 5877 5878 5879 5880 5882 5883 5884 5885 5886 5886 5887 5888 5888 5888 5888 5888 5888 5888 5887 5887 5887
5890 5889 5889 5888 5888 5888 5887 5887 5886 5886 5885 5884 5883 5882 5881 5880 5879 5877 5876 5876 5875 5875 5874 5874 5874 5874 5875 5875 5876 5878 5879 5880 5881 5882 5883 5884 5885 5886 5887 5887 5888 5888 5888 5888 5887 5887 5887 5887 5887
5890 5889 5889 5888 5888 5887 5887 5886 5886 5885 5885 5884 5884 5883 5882 5880 5879 5878 5877 5876 5875 5874 5874 5874 5873 5874 5874 5874 5875 5877 5878 5879 5881 5882 5883 5884 5885 5886 5886 5887 5887 5888 5888 5887 5887 5887 5887 5887 5887
5889 5889 5888 5888 5887 5887 5887 5886 5886 5885 5885 5885 5884 5883 5882 5881 5879 5878 5876 5875 5874 5874 5873 5873 5872 5872 5873 5873 5874 5876 5877 5878 5880 5881 5883 5884 5885 5886 5886 5887 5887 5887 5887 5887 5887 5887 5887 5887 5887
5888 5889 5888 5888 5887 5887 5886 5886 5885 5885 5885 5884 5884 5883 5882 5880 5878 5877 5876 5874 5873 5872 5872 5871 5871 5871 5871 5872 5873 5874 5876 5877 5879 5880 5882 5883 5884 5885 5886 5886 5887 5887 5887 5887 5887 5886 5886 5886 5886
5888 5888 5887 5887 5887 5886 5886 5885 5885 5885 5884 5884 5883 5882 5881 5879 5878 5876 5875 5873 5872 5871 5870 5869 5869 5868 5869 5870 5871 5873 5874 5876 5878 5880 5881 5883 5884 5885 5885 5886 5887 5887 5887 5887 5887 5886 5886 5886 5886
5887 5886 5886 5886 5886 5885 5885 5885 5884 5884 5883 5883 5883 5882 5880 5878 5877 5875 5873 5872 5870 5869 5868 5867 5866 5866 5867 5868 5869 5871 5872 5874 5876 5878 5880 5882 5883 5884 5885 5886 5886 5887 5887 5887 5887 5886 5887 5887 5886
5886 5885 5884 5884 5884 5884 5884 5884 5884 5883 5883 5882 5882 5880 5879 5877 5876 5874 5871 5869 5868 5866 5865 5864 5864 5864 5864 5865 5867 5868 5870 5872 5874 5876 5879 5880 5882 5883 5884 5885 5886 5886 5887 5887 5887 5887 5887 5887 5886
5884 5883 5883 5883 5883 5883 5883 5883 5883 5882 5882 5881 5880 5879 5878 5876 5875 5872 5870 5867 5865 5863 5862 5862 5861 5861 5861 5862 5864 5866 5867 5870 5872 5875 5877 5879 5880 5882 5883 5884 5885 5886 5887 5887 5887 5887 5887 5887 5886
5882 5882 5881 5881 5881 5881 5881 5881 5881 5881 5880 5879 5879 5878 5876 5875 5872 5870 5867 5865 5863 5860 5859 5858 5858 5858 5859 5860 5861 5863 5865 5868 5870 5872 5875 5877 5879 5881 5882 5883 5884 5885 5886 5887 5887 5887 5887 5887 5887
5880 5880 5880 5879 5879 5879 5880 5880 5879 5879 5878 5878 5877 5876 5875 5873 5871 5868 5865 5863 5860 5857 5855 5855 5855 5855 5856 5858 5860 5861 5863 5865 5868 5870 5873 5875 5877 5879 5881 5883 5884 5885 5886 5887 5887 5887 5887 5887 5887
5878 5878 5878 5877 5877 5877 5879 5879 5878 5877 5877 5876 5875 5874 5873 5871 5868 5866 5863 5860 5857 5854 5853 5852 5852 5852 5853 5855 5857 5859 5861 5863 5866 5868 5871 5873 5876 5878 5880 5882 5883 5885 5886 5886 5887 5887 5887 5887 5887
5876 5875 5875 5875 5875 5875 5876 5876 5876 5875 5875 5874 5873 5872 5870 5868 5866 5864 5861 5857 5855 5852 5851 5849 5849 5850 5851 5853 5855 5857 5859 5861 5864 5866 5869 5872 5875 5877 5879 5881 5883 5884 5885 5886 5887 5887 5888 5888 5888
5873 5873 5873 5873 5873 5873 5873 5874 5874 5873 5873 5872 5871 5869 5868 5865 5864 5861 5858 5855 5853 5851 5849 5848 5848 5849 5850 5851 5853 5855 5857 5860 5863 5865 5868 5871 5873 5876 5878 5880 5882 5883 5885 5886 5887 5887 5887 5887 5887
5870 5871 5871 5871 5870 5870 5871 5872 5872 5871 5871 5870 5869 5867 5865 5863 5861 5859 5856 5854 5852 5850 5848 5847 5847 5847 5849 5850 5852 5853 5856 5858 5861 5864 5867 5869 5872 5874 5877 5879 5881 5883 5884 5885 5886 5887 5887 5887 5888
5867 5868 5868 5868 5867 5867 5868 5869 5869 5869 5868 5867 5867 5865 5864 5861 5859 5857 5855 5853 5851 5849 5847 5846 5845 5845 5847 5848 5850 5852 5854 5856 5859 5862 5865 5868 5871 5873 5875 5878 5880 5882 5883 5885 5886 5887 5887 5887 5888
5864 5865 5865 5864 5864 5864 5865 5866 5867 5866 5866 5865 5864 5863 5862 5860 5858 5856 5854 5852 5850 5848 5846 5844 5844 5844 5845 5847 5848 5850 5852 5855 5858 5861 5864 5867 5869 5871 5874 5877 5879 5881 5883 5884 5885 5886 5886 5887 5887
5860 5860 5861 5861 5861 5861 5862 5863 5864 5863 5863 5862 5862 5861 5860 5859 5857 5855 5853 5851 5849 5846 5844 5843 5842 5842 5843 5845 5846 5849 5851 5854 5856 5859 5862 5865 5867 5870 5873 5875 5877 5880 5881 5883 5884 5885 5886 5886 5887
5855 5855 5857 5857 5857 5859 5859 5859 5861 5860 5860 5860 5859 5859 5858 5857 5855 5854 5852 5850 5848 5846 5843 5842 5841 5841 5842 5844 5845 5847 5850 5852 5855 5857 5860 5863 5866 5869 5871 5873 5876 5878 5880 5881 5882 5884 5885 5885 5886
5851 5851 5853 5854 5855 5856 5857 5856 5858 5857 5857 5857 5857 5856 5855 5854 5853 5852 5851 5849 5847 5845 5843 5841 5840 5839 5840 5842 5843 5845 5848 5850 5852 5855 5858 5861 5864 5867 5869 5872 5874 5876 5878 5879 5881 5882 5883 5884 5885
5847 5848 5849 5850 5851 5853 5853 5853 5855 5854 5854 5854 5854 5853 5853 5852 5851 5850 5849 5847 5846 5844 5842 5840 5839 5839 5839 5839 5840 5843 5845 5848 5850 5853 5857 5860 5863 5865 5867 5870 5872 5874 5876 5877 5879 5880 5881 5882 5883
5842 5844 5846 5847 5848 5849 5849 5850 5852 5851 5851 5851 5851 5851 5850 5850 5849 5848 5847 5846 5844 5842 5841 5840 5839 5838 5837 5838 5839 5842 5844 5846 5849 5852 5855 5858 5860 5863 5865 5867 5869 5871 5873 5875 5877 5878 5879 5880 5881
5836 5839 5841 5843 5844 5845 5846 5847 5848 5848 5849 5849 5849 5849 5848 5848 5847 5847 5846 5845 5843 5841 5840 5839 5838 5837 5837 5837 5838 5840 5842 5845 5848 5850 5853 5855 5858 5860 5862 5864 5867 5869 5870 5872 5874 5875 5876 5878 5879
5832 5834 5836 5838 5840 5841 5843 5844 5845 5846 5847 5847 5848 5847 5846 5846 5845 5845 5844 5843 5842 5840 5839 5839 5838 5837 5837 5837 5838 5839 5841 5844 5846 5848 5850 5852 5855 5857 5859 5861 5863 5865 5867 5869 5871 5872 5873 5874 5875
5828 5830 5832 5834 5836 5838 5839 5843 5842 5843 5844 5845 5845 5845 5845 5844 5843 5843 5842 5841 5840 5839 5839 5838 5837 5837 5837 5837 5837 5838 5840 5841 5844 5846 5847 5849 5851 5853 5856 5858 5860 5862 5864 5865 5867 5868 5869 5871 5872
5822 5825 5828 5831 5832 5834 5836 5841 5839 5840 5841 5842 5842 5843 5843 5842 5841 5841 5840 5839 5838 5838 5837 5837 5836 5836 5836 5836 5836 5837 5838 5839 5841 5843 5844 5846 5848 5850 5852 5854 5856 5858 5860 5861 5863 5864 5865 5866 5867